Weather Roundup
Issued by NWS Springfield, MO

Home | Current Version | Previous Version | Text Only | Print | Product List | Glossary On
Versions: 1 2 3 4 5 6 7 8 9 10 11 12 13 14 15 16 17 18 19 20 21 22 23 24 25 26 27 28 29 30 31 32 33 34 35 36 37 38 39 40 41 42 43 44 45 46 47 48 49 50
000
NZUS99 KSGF 240107
HRRSGF

HOURLY WEATHER
NATIONAL WEATHER SERVICE SPRINGFIELD MO
800 PM CDT THU MAR 23 2017

......SGF CWA......

CITY           SKY/WX    TMP DP  RH WIND       PRES   REMARKS
SPRINGFIELD    CLEAR     71  45  39 S17       29.91S
JOPLIN         CLEAR     72  48  42 S16G22    29.87R
WEST PLAINS    CLEAR     66  50  56 SE12      30.04S
ROLLA          CLEAR     68  50  52 S15       29.94F
OSAGE BEACH    CLEAR    N/A N/A N/A S9G21     29.92S
BRANSON        PTCLDY    68  50  52 SE10      29.98S

......SURROUNDING SGF CWA......

CITY           SKY/WX    TMP DP  RH WIND       PRES   REMARKS
CHANUTE        CLEAR     72  49  44 SE16      29.79S
PARSONS        CLEAR     74  50  42 S12G22    29.80F
COFFEYVILLE    CLEAR     75  52  44 S18       29.80S
EMPORIA        CLEAR     70  51  51 SE18G26   29.72F
GROVE OK       CLEAR     73  50  43 SE9       29.88F
ROGERS AR      CLEAR     72  48  42 SE13      29.94S
SILOAM SPRINGS CLEAR     72  46  40 S16G24    29.91S
HARRISON AR    CLEAR     70  47  43 S16       29.97F
NEAR YELLVILLE CLEAR     72  50  46 SE6       29.97S

......KANSAS AND MISSOURI......

CITY           SKY/WX    TMP DP  RH WIND       PRES   REMARKS
KANSAS CTY INT PTCLDY    72  45  37 S17G28    29.77S
DOWNTOWN KC    CLEAR     75  43  31 S13G22    29.77F
COLUMBIA       CLEAR     72  49  44 S14       29.89S
SEDALIA        CLEAR     73  48  41 S18       29.86S
ST JOSEPH      PTCLDY    74  49  41 S21       29.74R
ST LOUIS       PTCLDY    62  41  46 SE20G28   30.01S
SPIRIT OF STL  CLEAR     62  41  46 SE9       29.98S
KIRKSVILLE     CLEAR     58  41  53 SE14      29.85S
WICHITA        PTCLDY    75  48  38 S22G30    29.67S
TOPEKA         CLEAR     73  50  44 S20G28    29.73S
OLATHE         CLEAR     70  45  40 S14G24    29.78F

......TENNESSEE......

CITY           SKY/WX    TMP DP  RH WIND       PRES   REMARKS
MEMPHIS        CLEAR     75  52  44 SE7       30.10F
NASHVILLE      PTCLDY    64  43  46 S9        30.21F

......ARKANSAS.......

CITY           SKY/WX    TMP DP  RH WIND       PRES   REMARKS
FAYETTEVILLE   CLEAR     73  48  41 S16G25    29.93F
FT SMITH       CLEAR     77  50  38 SE9       29.92F
LITTLE ROCK    CLEAR     73  53  49 S7        30.02S

......OKLAHOMA.......

CITY           SKY/WX    TMP DP  RH WIND       PRES   REMARKS
TULSA          PTCLDY    79  49  34 S17G28    29.80S
PONCA CITY     CLEAR     77  47  34 S22G31    29.71F
MCALESTER      PTCLDY    79  47  32 S10G18    29.87S
OKLAHOMA CITY  PTCLDY    76  47  35 S29G43    29.75S

......IOWA............

CITY           SKY/WX    TMP DP  RH WIND       PRES   REMARKS
DES MOINES     CLOUDY    53  38  56 E10       29.75F
QUAD CITIES    CLOUDY    44  35  70 SE9       29.91F

......ILLINOIS........

CITY           SKY/WX    TMP DP  RH WIND       PRES   REMARKS
QUINCY         CLEAR     52  41  66 SE14      29.91F
CHICAGO        TSTM      46  32  58 S18G30    30.04F




USA.gov is the U.S. government's official web portal to all federal, state and local government web resources and services.